AIRUN1 LILV-LILV

Flight info

Callsign AIRUN1
Flight time 0h 27m
Altitude 1000
Route ZZZZ ZZZZ
Aircraft DG1T/L-SDE/L

Departure

Time 2026-05-06 11:20
Airport Valbrembo Airfield (LILV)

Arrival

Time 2026-05-06 11:48
Airport Valbrembo Airfield (LILV)
Time Latitude Longitude Altitude Speed Heading
2026-05-06 11:18 45.71712 9.59234 746 ft 0 kts 23°
2026-05-06 11:18 45.71716 9.59236 747 ft 5 kts 23°
2026-05-06 11:18 45.71842 9.59313 748 ft 34 kts 22°
2026-05-06 11:19 45.72156 9.59505 759 ft 63 kts 28°
2026-05-06 11:19 45.72572 9.59760 854 ft 66 kts 32°
2026-05-06 11:19 45.72991 9.60065 993 ft 68 kts 31°
2026-05-06 11:19 45.73397 9.60400 1104 ft 68 kts 37°
2026-05-06 11:20 45.73804 9.60769 1215 ft 76 kts 27°
2026-05-06 11:20 45.74296 9.61138 1328 ft 81 kts 35°
2026-05-06 11:20 45.74403 9.61882 1438 ft 83 kts 108°
2026-05-06 11:20 45.74009 9.62454 1605 ft 80 kts 130°
2026-05-06 11:21 45.73566 9.62895 1752 ft 78 kts 152°
2026-05-06 11:21 45.73384 9.63484 1940 ft 70 kts 63°
2026-05-06 11:21 45.73645 9.63868 2035 ft 80 kts 37°
2026-05-06 11:21 45.73789 9.63942 2084 ft 83 kts 30°
2026-05-06 11:22 45.74405 9.63811 2241 ft 97 kts 340°
2026-05-06 11:22 45.75004 9.63359 2490 ft 97 kts 340°
2026-05-06 11:22 45.75599 9.62902 2729 ft 96 kts 333°
2026-05-06 11:22 45.76204 9.62419 2829 ft 99 kts 336°
2026-05-06 11:23 45.76778 9.61973 3092 ft 89 kts 320°
2026-05-06 11:23 45.76976 9.61203 3193 ft 85 kts 261°
2026-05-06 11:23 45.76940 9.60440 3259 ft 75 kts 302°
2026-05-06 11:23 45.77358 9.60053 3262 ft 73 kts 336°
2026-05-06 11:24 45.77845 9.59847 3217 ft 74 kts 354°
2026-05-06 11:24 45.78362 9.59915 3207 ft 76 kts 15°
2026-05-06 11:24 45.78866 9.60158 3215 ft 77 kts 18°
2026-05-06 11:24 45.79320 9.60573 3203 ft 82 kts 65°
2026-05-06 11:25 45.79139 9.61195 3257 ft 75 kts 162°
2026-05-06 11:25 45.78814 9.60769 3256 ft 87 kts 290°
2026-05-06 11:25 45.79307 9.60675 3294 ft 83 kts 53°
2026-05-06 11:25 45.79135 9.61292 3274 ft 84 kts 168°
2026-05-06 11:26 45.78727 9.60877 3360 ft 75 kts 259°
2026-05-06 11:26 45.79016 9.60376 3372 ft 74 kts
2026-05-06 11:26 45.79349 9.60876 3377 ft 75 kts 86°
2026-05-06 11:26 45.79387 9.61590 3398 ft 74 kts 70°
2026-05-06 11:27 45.79801 9.61935 3471 ft 72 kts 343°
2026-05-06 11:27 45.79937 9.61304 3423 ft 83 kts 254°
2026-05-06 11:27 45.80056 9.60515 3406 ft 84 kts 317°
2026-05-06 11:27 45.80495 9.60034 3408 ft 78 kts 322°
2026-05-06 11:28 45.80909 9.59565 3394 ft 75 kts 320°
2026-05-06 11:28 45.81335 9.59076 3349 ft 79 kts 324°
2026-05-06 11:28 45.81794 9.58708 3389 ft 74 kts 335°
2026-05-06 11:28 45.82266 9.58343 3359 ft 77 kts 331°
2026-05-06 11:29 45.82727 9.57987 3391 ft 74 kts 329°
2026-05-06 11:29 45.83056 9.57438 3389 ft 76 kts 294°
2026-05-06 11:29 45.83479 9.57014 3418 ft 75 kts 332°
2026-05-06 11:29 45.83866 9.56513 3421 ft 79 kts 315°
2026-05-06 11:30 45.84360 9.56278 3410 ft 81 kts 19°
2026-05-06 11:30 45.84903 9.56248 3456 ft 73 kts 330°
2026-05-06 11:30 45.85291 9.56443 3373 ft 76 kts 90°
2026-05-06 11:30 45.84914 9.56795 3359 ft 75 kts 181°
2026-05-06 11:31 45.84402 9.56782 3346 ft 71 kts 184°
2026-05-06 11:31 45.83915 9.56744 3332 ft 69 kts 163°
2026-05-06 11:31 45.83615 9.56437 3398 ft 68 kts 289°
2026-05-06 11:31 45.84059 9.56249 3328 ft 78 kts
2026-05-06 11:32 45.84538 9.56538 3273 ft 82 kts 70°
2026-05-06 11:32 45.84295 9.57074 3295 ft 69 kts 165°
2026-05-06 11:32 45.83841 9.57238 3277 ft 66 kts 162°
2026-05-06 11:32 45.83464 9.57537 3333 ft 62 kts 119°
2026-05-06 11:33 45.83701 9.57930 3430 ft 69 kts 342°
2026-05-06 11:33 45.83816 9.57381 3455 ft 66 kts 228°
2026-05-06 11:33 45.83407 9.57417 3492 ft 69 kts 130°
2026-05-06 11:33 45.83438 9.57965 3639 ft 60 kts 32°
2026-05-06 11:34 45.83833 9.57770 3588 ft 73 kts 307°
2026-05-06 11:34 45.84186 9.57214 3635 ft 68 kts 337°
2026-05-06 11:34 45.84594 9.57336 3695 ft 62 kts 41°
2026-05-06 11:34 45.84692 9.57859 3766 ft 54 kts 116°
2026-05-06 11:35 45.84326 9.58093 3610 ft 79 kts 191°
2026-05-06 11:35 45.83932 9.57527 3575 ft 85 kts 254°
2026-05-06 11:35 45.83827 9.56772 3672 ft 73 kts 221°
2026-05-06 11:35 45.83346 9.56750 3692 ft 71 kts 161°
2026-05-06 11:36 45.83030 9.57251 3689 ft 74 kts 115°
2026-05-06 11:36 45.82762 9.57851 3744 ft 71 kts 133°
2026-05-06 11:36 45.82421 9.58391 3730 ft 75 kts 109°
2026-05-06 11:36 45.82638 9.58952 3704 ft 77 kts 14°
2026-05-06 11:37 45.83171 9.58999 3724 ft 74 kts
2026-05-06 11:37 45.83405 9.58551 3706 ft 78 kts 237°
2026-05-06 11:37 45.82852 9.58435 3718 ft 80 kts 158°
2026-05-06 11:37 45.82422 9.58068 3631 ft 87 kts 260°
2026-05-06 11:38 45.82685 9.57395 3671 ft 78 kts 324°
2026-05-06 11:38 45.83155 9.57048 3688 ft 75 kts 332°
2026-05-06 11:38 45.83608 9.56674 3681 ft 76 kts 329°
2026-05-06 11:38 45.84087 9.56356 3667 ft 76 kts 348°
2026-05-06 11:39 45.84583 9.56149 3690 ft 72 kts 329°
2026-05-06 11:39 45.85048 9.56023 3637 ft 76 kts 27°
2026-05-06 11:39 45.85134 9.56730 3601 ft 85 kts 131°
2026-05-06 11:39 45.84777 9.56367 3696 ft 85 kts 288°
2026-05-06 11:40 45.85179 9.56244 3705 ft 82 kts 51°
2026-05-06 11:40 45.85032 9.56989 3561 ft 102 kts 143°
2026-05-06 11:40 45.84383 9.57462 3760 ft 85 kts 160°
2026-05-06 11:40 45.83963 9.57761 3922 ft 64 kts 146°
2026-05-06 11:41 45.83554 9.57621 3807 ft 81 kts 259°
2026-05-06 11:41 45.83843 9.56898 3633 ft 98 kts 282°
2026-05-06 11:41 45.84130 9.56281 3847 ft 66 kts 351°
2026-05-06 11:41 45.84542 9.56714 3686 ft 89 kts 78°
2026-05-06 11:42 45.84312 9.57405 3746 ft 81 kts 149°
2026-05-06 11:42 45.83885 9.57905 3734 ft 79 kts 138°
2026-05-06 11:42 45.83446 9.58385 3685 ft 80 kts 144°
2026-05-06 11:42 45.83016 9.58770 3709 ft 71 kts 152°
2026-05-06 11:43 45.82571 9.59131 3659 ft 73 kts 136°
2026-05-06 11:43 45.82222 9.59655 3619 ft 76 kts 134°
2026-05-06 11:43 45.81887 9.60183 3689 ft 68 kts 137°
2026-05-06 11:44 45.80997 9.60831 3725 ft 73 kts 175°
2026-05-06 11:44 45.80496 9.60933 3721 ft 75 kts 173°
2026-05-06 11:44 45.79954 9.61002 3655 ft 80 kts 175°
2026-05-06 11:44 45.79364 9.60978 3554 ft 89 kts 186°
2026-05-06 11:45 45.78788 9.60881 3444 ft 81 kts 184°
2026-05-06 11:45 45.78225 9.60803 3237 ft 82 kts 184°
2026-05-06 11:45 45.77682 9.60742 3055 ft 75 kts 183°
2026-05-06 11:45 45.77148 9.60689 2832 ft 82 kts 181°
2026-05-06 11:46 45.76577 9.60713 2609 ft 87 kts 163°
2026-05-06 11:46 45.75972 9.60784 2382 ft 89 kts 167°
2026-05-06 11:46 45.75403 9.60839 2215 ft 79 kts 172°
2026-05-06 11:46 45.74879 9.60797 1965 ft 74 kts 181°
2026-05-06 11:47 45.74376 9.60753 1679 ft 76 kts 179°
2026-05-06 11:47 45.73847 9.60537 1438 ft 81 kts 203°
2026-05-06 11:47 45.73337 9.60213 1212 ft 80 kts 202°
2026-05-06 11:47 45.72814 9.59903 942 ft 81 kts 204°
2026-05-06 11:48 45.72335 9.59603 770 ft 73 kts 197°
2026-05-06 11:48 45.71984 9.59356 751 ft 39 kts 182°
2026-05-06 11:48 45.71801 9.59264 751 ft 20 kts 205°
2026-05-06 11:48 45.71714 9.59227 750 ft 8 kts 185°
2026-05-06 11:49 45.71688 9.59217 750 ft 0 kts 185°